| time (UTC) | temp F | wind direction | speed knots | gust knots | rain 1hr in | rain 24hr in | rain mn in | humidity % | barometer mb |
| 20260502130329 | 41 | 45 | 0.9 | 3.5 | 0.00 | 0.00 | 0.00 | 81 | 1014.2 |
| 20260502123327 | 39 | 70 | 2.6 | 7.8 | 0.00 | 0.00 | 0.00 | 89 | 1014.4 |
| 20260502123144 | 39 | 48 | 1.7 | 7.8 | 0.00 | 0.00 | 0.00 | 89 | 1014.4 |
| 20260502122826 | 39 | 46 | 3.5 | 7.8 | 0.00 | 0.00 | 0.00 | 89 | 1014.3 |
| 20260502122326 | 39 | 66 | 1.7 | 5.2 | 0.00 | 0.00 | 0.00 | 91 | 1014.3 |
| 20260502121826 | 38 | 64 | 0.9 | 5.2 | 0.00 | 0.00 | 0.00 | 91 | 1014.2 |
| 20260502121621 | 38 | 63 | 2.6 | 5.2 | 0.00 | 0.00 | 0.00 | 91 | 1014.2 |
| 20260502121325 | 38 | 63 | 0.9 | 5.2 | 0.00 | 0.00 | 0.00 | 92 | 1014.1 |
| 20260502120825 | 38 | 60 | 0.9 | 6.1 | 0.00 | 0.00 | 0.00 | 91 | 1014.1 |
| 20260502120324 | 38 | 103 | 3.5 | 6.1 | 0.00 | 0.00 | 0.00 | 91 | 1014.0 |
| 20260502115824 | 38 | 72 | 1.7 | 3.5 | 0.00 | 0.00 | 0.00 | 91 | 1013.8 |
| 20260502115324 | 38 | 89 | 0.9 | 2.6 | 0.00 | 0.00 | 0.00 | 92 | 1013.7 |
| 20260502114824 | 38 | 89 | 0.9 | 1.7 | 0.00 | 0.00 | 0.00 | 93 | 1013.7 |
| 20260502114548 | 38 | 89 | 0.0 | 1.7 | 0.00 | 0.00 | 0.00 | 94 | 1013.7 |
| 20260502114323 | 38 | 89 | 0.9 | 1.7 | 0.00 | 0.00 | 0.00 | 94 | 1013.6 |
| 20260502113823 | 37 | 225 | 0.0 | 1.7 | 0.00 | 0.00 | 0.00 | 96 | 1013.5 |
| 20260502113322 | 36 | 228 | 0.0 | 1.7 | 0.00 | 0.00 | 0.00 | 96 | 1013.2 |
| 20260502113019 | 36 | 228 | 0.0 | 1.7 | 0.00 | 0.00 | 0.00 | 96 | 1013.4 |
| 20260502112822 | 36 | 228 | 0.0 | 1.7 | 0.00 | 0.00 | 0.00 | 96 | 1013.4 |
| 20260502112322 | 35 | 284 | 0.0 | 0.9 | 0.00 | 0.00 | 0.00 | 96 | 1013.4 |
| 20260502111821 | 34 | 280 | 0.0 | 0.9 | 0.00 | 0.00 | 0.00 | 96 | 1013.3 |
| 20260502111504 | 34 | 278 | 0.0 | 0.9 | 0.00 | 0.00 | 0.00 | 96 | 1013.4 |
| 20260502111239 | 34 | 234 | 0.0 | 0.9 | 0.00 | 0.00 | 0.00 | 97 | 1013.4 |
| 20260502110738 | 34 | 234 | 0.0 | 0.9 | 0.00 | 0.00 | 0.00 | 97 | 1013.3 |
| 20260502110156 | 34 | 235 | 0.0 | 1.7 | 0.00 | 0.00 | 0.00 | 97 | 1013.2 |
| 20260502105656 | 34 | 235 | 0.0 | 1.7 | 0.00 | 0.00 | 0.00 | 97 | 1013.0 |
| 20260502105010 | 34 | 235 | 0.0 | 2.6 | 0.00 | 0.00 | 0.00 | 97 | 1012.9 |
| 20260502104509 | 34 | 235 | 0.0 | 1.7 | 0.00 | 0.00 | 0.00 | 98 | 1013.1 |
| 20260502104009 | 33 | 235 | 0.9 | 1.7 | 0.00 | 0.00 | 0.00 | 97 | 1013.1 |
| 20260502103509 | 33 | 235 | 0.0 | 0.9 | 0.00 | 0.00 | 0.00 | 97 | 1013.1 |
| 20260502102947 | 32 | 235 | 0.0 | 0.9 | 0.00 | 0.00 | 0.00 | 97 | 1013.1 |
| 20260502102405 | 32 | 247 | 0.0 | 0.9 | 0.00 | 0.00 | 0.00 | 97 | 1013.0 |
| 20260502101905 | 32 | 247 | 0.0 | 0.9 | 0.00 | 0.00 | 0.00 | 97 | 1013.0 |
| 20260502101404 | 32 | 248 | 0.0 | 0.9 | 0.00 | 0.00 | 0.00 | 97 | 1012.9 |
| 20260502100822 | 31 | 248 | 0.0 | 1.7 | 0.00 | 0.00 | 0.00 | 97 | 1012.7 |
| 20260502100322 | 31 | 287 | 0.0 | 1.7 | 0.00 | 0.00 | 0.00 | 97 | 1012.5 |
| 20260502091215 | 31 | 213 | 0.0 | 0.9 | 0.00 | 0.01 | 0.00 | 97 | 1012.9 |
| 20260502090654 | 30 | 213 | 0.0 | 0.9 | 0.00 | 0.01 | 0.00 | 96 | 1012.9 |
| 20260502090153 | 30 | 213 | 0.0 | 0.0 | 0.00 | 0.01 | 0.00 | 96 | 1012.8 |
| 20260502080107 | 30 | 213 | 0.0 | 0.0 | 0.00 | 0.01 | 0.00 | 95 | 1012.0 |
| 20260502071533 | 30 | 213 | 0.0 | 0.0 | 0.00 | 0.01 | 0.00 | 94 | 1012.1 |
| 20260502071523 | 30 | 213 | 0.0 | 0.0 | 0.00 | 0.01 | 0.00 | 94 | 1012.0 |
| 20260502071023 | 30 | 213 | 0.0 | 0.0 | 0.00 | 0.01 | 0.00 | 94 | 1012.1 |
| 20260502070522 | 31 | 213 | 0.0 | 0.0 | 0.00 | 0.01 | 0.00 | 94 | 1012.1 |
| 20260502070022 | 31 | 213 | 0.0 | 0.0 | 0.00 | 0.01 | 0.00 | 95 | 1012.1 |
| 20260502070007 | 31 | 213 | 0.0 | 0.0 | 0.00 | 0.01 | 0.00 | 95 | 1012.1 |
| 20260502065522 | 31 | 213 | 0.0 | 0.0 | 0.00 | 0.01 | 0.00 | 95 | 1012.0 |
| 20260502065000 | 31 | 213 | 0.0 | 0.0 | 0.00 | 0.01 | 0.00 | 95 | 1012.0 |
| 20260502064501 | 31 | 213 | 0.0 | 0.0 | 0.00 | 0.01 | 0.00 | 94 | 1012.1 |
| 20260502064000 | 31 | 213 | 0.0 | 0.0 | 0.00 | 0.01 | 0.00 | 94 | 1012.1 |
| 20260502063500 | 31 | 213 | 0.0 | 0.0 | 0.00 | 0.01 | 0.00 | 94 | 1012.0 |
| 20260502062959 | 31 | 213 | 0.0 | 0.0 | 0.00 | 0.01 | 0.00 | 94 | 1012.0 |
| 20260502062459 | 31 | 213 | 0.0 | 0.0 | 0.00 | 0.01 | 0.00 | 94 | 1011.9 |
| 20260502061959 | 31 | 213 | 0.0 | 0.0 | 0.00 | 0.01 | 0.00 | 93 | 1011.9 |
| 20260502061458 | 31 | 213 | 0.0 | 0.9 | 0.00 | 0.01 | 0.00 | 93 | 1011.8 |
| 20260502060958 | 31 | 213 | 0.0 | 1.7 | 0.00 | 0.01 | 0.00 | 93 | 1011.9 |
| 20260502060457 | 31 | 213 | 0.9 | 1.7 | 0.00 | 0.01 | 0.00 | 93 | 1011.9 |
| 20260502055957 | 31 | 212 | 0.0 | 0.0 | 0.00 | 0.01 | 0.00 | 93 | 1011.8 |
| 20260502055457 | 32 | 212 | 0.0 | 0.0 | 0.00 | 0.01 | 0.00 | 93 | 1011.9 |
| 20260502054956 | 32 | 212 | 0.0 | 0.0 | 0.00 | 0.01 | 0.00 | 92 | 1011.9 |
| 20260502054456 | 32 | 212 | 0.0 | 0.9 | 0.00 | 0.01 | 0.00 | 92 | 1012.0 |
| 20260502053956 | 32 | 212 | 0.0 | 0.9 | 0.00 | 0.01 | 0.00 | 92 | 1012.0 |
| 20260502053455 | 32 | 212 | 0.0 | 0.9 | 0.00 | 0.01 | 0.00 | 93 | 1011.9 |
| 20260502052955 | 32 | 212 | 0.0 | 1.7 | 0.00 | 0.01 | 0.00 | 93 | 1011.9 |
| 20260502052455 | 32 | 212 | 0.0 | 1.7 | 0.00 | 0.01 | 0.00 | 93 | 1011.8 |
| 20260502051933 | 32 | 213 | 0.0 | 0.0 | 0.00 | 0.01 | 0.00 | 92 | 1011.7 |
| 20260502051433 | 32 | 213 | 0.0 | 0.0 | 0.00 | 0.01 | 0.00 | 91 | 1011.7 |
| 20260502050911 | 32 | 213 | 0.0 | 0.0 | 0.00 | 0.01 | 0.00 | 91 | 1011.7 |
| 20260502050411 | 33 | 213 | 0.0 | 0.9 | 0.00 | 0.01 | 0.00 | 91 | 1011.7 |
| 20260502045911 | 33 | 213 | 0.0 | 1.7 | 0.00 | 0.01 | 0.00 | 90 | 1011.6 |
| 20260502045410 | 33 | 213 | 0.0 | 1.7 | 0.00 | 0.01 | 0.00 | 90 | 1011.6 |
| 20260502044910 | 33 | 213 | 0.0 | 0.0 | 0.00 | 0.01 | 0.00 | 91 | 1011.6 |
| 20260502044410 | 33 | 212 | 0.0 | 0.0 | 0.00 | 0.01 | 0.00 | 90 | 1011.5 |
| 20260502043910 | 34 | 212 | 0.0 | 0.9 | 0.00 | 0.01 | 0.00 | 90 | 1011.5 |
| 20260502043409 | 34 | 212 | 0.0 | 0.9 | 0.00 | 0.01 | 0.00 | 90 | 1011.4 |
| 20260502042909 | 34 | 212 | 0.0 | 0.0 | 0.00 | 0.01 | 0.00 | 89 | 1011.5 |
| 20260502042409 | 34 | 212 | 0.0 | 0.0 | 0.00 | 0.01 | 0.00 | 88 | 1011.5 |
| 20260502041908 | 34 | 212 | 0.0 | 0.0 | 0.00 | 0.01 | 0.00 | 89 | 1011.5 |
| 20260502041408 | 34 | 212 | 0.0 | 0.0 | 0.00 | 0.01 | 0.00 | 89 | 1011.5 |
| 20260502040908 | 34 | 212 | 0.0 | 0.0 | 0.00 | 0.01 | 0.00 | 90 | 1011.4 |
| 20260502040407 | 34 | 213 | 0.0 | 0.0 | 0.00 | 0.01 | 0.00 | 89 | 1011.4 |
| 20260502040150 | 34 | 213 | 0.0 | 0.0 | 0.00 | 0.01 | 0.00 | 89 | 1011.4 |
| 20260502035907 | 34 | 213 | 0.0 | 0.0 | 0.00 | 0.02 | 0.01 | 88 | 1011.3 |
| 20260502035406 | 34 | 213 | 0.0 | 0.0 | 0.00 | 0.02 | 0.01 | 88 | 1011.3 |
| 20260502034906 | 35 | 212 | 0.0 | 0.0 | 0.00 | 0.02 | 0.01 | 87 | 1011.3 |
| 20260502034636 | 35 | 213 | 0.0 | 0.0 | 0.00 | 0.02 | 0.01 | 87 | 1011.3 |
| 20260502034406 | 35 | 212 | 0.0 | 0.0 | 0.00 | 0.02 | 0.01 | 87 | 1011.2 |
| 20260502033906 | 35 | 212 | 0.0 | 0.9 | 0.00 | 0.02 | 0.01 | 86 | 1011.1 |
| 20260502033405 | 36 | 213 | 0.0 | 0.9 | 0.00 | 0.02 | 0.01 | 86 | 1011.2 |
| 20260502033109 | 36 | 213 | 0.0 | 0.9 | 0.00 | 0.02 | 0.01 | 85 | 1011.2 |
| 20260502032905 | 36 | 212 | 0.0 | 0.9 | 0.00 | 0.02 | 0.01 | 85 | 1011.2 |
| 20260502032343 | 36 | 212 | 0.0 | 0.9 | 0.00 | 0.02 | 0.01 | 87 | 1011.2 |
| 20260502031843 | 36 | 212 | 0.0 | 0.0 | 0.00 | 0.02 | 0.01 | 87 | 1011.1 |
| 20260502031600 | 36 | 212 | 0.0 | 0.9 | 0.00 | 0.02 | 0.01 | 87 | 1011.2 |
| 20260502031322 | 36 | 212 | 0.0 | 1.7 | 0.00 | 0.02 | 0.01 | 86 | 1011.1 |
| 20260502030821 | 36 | 212 | 0.0 | 1.7 | 0.00 | 0.02 | 0.01 | 85 | 1011.1 |
| 20260502030321 | 36 | 212 | 0.0 | 1.7 | 0.00 | 0.02 | 0.01 | 85 | 1011.0 |
| 20260502030054 | 36 | 213 | 0.0 | 1.7 | 0.00 | 0.02 | 0.01 | 85 | 1011.0 |
| 20260502025821 | 36 | 213 | 0.0 | 1.7 | 0.00 | 0.02 | 0.01 | 85 | 1011.0 |
| 20260502025320 | 37 | 213 | 0.0 | 0.0 | 0.00 | 0.02 | 0.01 | 85 | 1011.0 |
| 20260502024820 | 37 | 213 | 0.0 | 0.0 | 0.00 | 0.02 | 0.01 | 85 | 1011.0 |
| 20260502024538 | 37 | 213 | 0.0 | 0.9 | 0.00 | 0.02 | 0.01 | 84 | 1011.1 |
| 20260502024320 | 37 | 213 | 0.0 | 0.9 | 0.00 | 0.02 | 0.01 | 83 | 1011.1 |
| 20260502023819 | 38 | 213 | 0.0 | 0.9 | 0.00 | 0.02 | 0.01 | 81 | 1011.1 |
| 20260502023319 | 38 | 213 | 0.0 | 0.9 | 0.00 | 0.02 | 0.01 | 80 | 1011.1 |
| 20260502022758 | 38 | 213 | 0.0 | 1.7 | 0.00 | 0.02 | 0.01 | 78 | 1011.1 |
| 20260502022257 | 39 | 213 | 0.0 | 1.7 | 0.00 | 0.02 | 0.01 | 77 | 1011.0 |
| 20260502021715 | 39 | 213 | 0.0 | 2.6 | 0.00 | 0.02 | 0.01 | 74 | 1011.1 |
| 20260502021214 | 39 | 213 | 0.0 | 3.5 | 0.00 | 0.02 | 0.01 | 76 | 1011.0 |
| 20260502020632 | 39 | 203 | 0.9 | 1.7 | 0.00 | 0.02 | 0.01 | 77 | 1011.0 |
| 20260502020131 | 40 | 202 | 0.0 | 1.7 | 0.00 | 0.02 | 0.01 | 75 | 1011.2 |
| 20260502015631 | 40 | 201 | 0.0 | 1.7 | 0.00 | 0.02 | 0.01 | 75 | 1011.2 |
| 20260502015131 | 41 | 201 | 0.0 | 0.9 | 0.00 | 0.02 | 0.01 | 73 | 1011.2 |
| 20260502014631 | 42 | 201 | 0.0 | 0.9 | 0.00 | 0.02 | 0.01 | 72 | 1011.1 |
| 20260502014130 | 42 | 201 | 0.0 | 1.7 | 0.00 | 0.02 | 0.01 | 71 | 1011.1 |
| 20260502013630 | 43 | 201 | 0.0 | 1.7 | 0.00 | 0.02 | 0.01 | 66 | 1011.0 |
| 20260502013129 | 44 | 201 | 0.0 | 2.6 | 0.00 | 0.02 | 0.01 | 64 | 1011.1 |
| 20260502012629 | 44 | 201 | 0.9 | 5.2 | 0.00 | 0.02 | 0.01 | 62 | 1011.0 |
| 20260502012129 | 44 | 201 | 1.7 | 5.2 | 0.00 | 0.02 | 0.01 | 61 | 1010.9 |
| 20260502011628 | 45 | 197 | 0.9 | 7.8 | 0.00 | 0.02 | 0.01 | 61 | 1010.9 |
| 20260502011128 | 45 | 167 | 0.9 | 7.8 | 0.00 | 0.02 | 0.01 | 60 | 1010.8 |
| 20260502010628 | 45 | 171 | 1.7 | 6.1 | 0.00 | 0.02 | 0.01 | 60 | 1010.6 |
| 20260502010127 | 45 | 175 | 0.9 | 6.1 | 0.00 | 0.02 | 0.01 | 60 | 1010.5 |
| 20260502005627 | 46 | 170 | 1.7 | 6.1 | 0.00 | 0.03 | 0.01 | 60 | 1010.5 |
| 20260502005126 | 46 | 181 | 1.7 | 6.1 | 0.00 | 0.03 | 0.01 | 60 | 1010.4 |
| 20260502004544 | 46 | 187 | 1.7 | 7.0 | 0.00 | 0.03 | 0.01 | 59 | 1010.3 |
| 20260502004023 | 47 | 177 | 1.7 | 6.1 | 0.00 | 0.03 | 0.01 | 58 | 1010.2 |
| 20260502003522 | 47 | 172 | 3.5 | 5.2 | 0.00 | 0.03 | 0.01 | 57 | 1010.1 |
| 20260502003022 | 47 | 178 | 1.7 | 5.2 | 0.00 | 0.03 | 0.01 | 58 | 1010.0 |
| 20260502002522 | 47 | 183 | 1.7 | 5.2 | 0.00 | 0.03 | 0.01 | 56 | 1009.9 |
| 20260502002022 | 47 | 201 | 1.7 | 6.1 | 0.00 | 0.03 | 0.01 | 56 | 1009.8 |
| 20260502001521 | 48 | 177 | 1.7 | 6.1 | 0.00 | 0.03 | 0.01 | 56 | 1009.7 |
| 20260502001021 | 48 | 210 | 2.6 | 7.0 | 0.00 | 0.03 | 0.01 | 55 | 1009.5 |
| 20260502000521 | 48 | 199 | 0.9 | 8.7 | 0.00 | 0.03 | 0.01 | 54 | 1009.5 |
| 20260502000021 | 48 | 180 | 2.6 | 8.7 | 0.00 | 0.03 | 0.01 | 52 | 1009.3 |
| 20260501235520 | 49 | 187 | 1.7 | 5.2 | 0.00 | 0.04 | 0.01 | 53 | 1009.1 |
| 20260501235020 | 49 | 164 | 1.7 | 5.2 | 0.00 | 0.04 | 0.01 | 53 | 1009.0 |
| 20260501234701 | 50 | 151 | 1.7 | 5.2 | 0.00 | 0.04 | 0.01 | 53 | 1009.0 |
| 20260501234520 | 50 | 176 | 1.7 | 6.1 | 0.00 | 0.04 | 0.01 | 52 | 1008.9 |
| 20260501234020 | 50 | 174 | 1.7 | 8.7 | 0.00 | 0.04 | 0.01 | 50 | 1008.7 |
| 20260501233519 | 51 | 171 | 1.7 | 13.9 | 0.00 | 0.04 | 0.01 | 49 | 1008.6 |
| 20260501233146 | 51 | 168 | 3.5 | 13.9 | 0.00 | 0.04 | 0.01 | 48 | 1008.6 |
| 20260501233019 | 51 | 113 | 4.3 | 13.9 | 0.00 | 0.04 | 0.01 | 48 | 1008.5 |
| 20260501232518 | 51 | 164 | 3.5 | 7.8 | 0.00 | 0.04 | 0.01 | 47 | 1008.3 |
| 20260501232018 | 51 | 159 | 3.5 | 7.0 | 0.00 | 0.04 | 0.01 | 47 | 1008.2 |
| 20260501231630 | 52 | 162 | 2.6 | 9.6 | 0.00 | 0.04 | 0.01 | 46 | 1008.2 |
| 20260501231518 | 52 | 164 | 2.6 | 9.6 | 0.00 | 0.04 | 0.01 | 46 | 1008.1 |
| 20260501231018 | 52 | 166 | 4.3 | 9.6 | 0.00 | 0.04 | 0.01 | 46 | 1008.0 |
| 20260501230517 | 52 | 185 | 2.6 | 8.7 | 0.00 | 0.04 | 0.01 | 46 | 1007.9 |
| 20260501230108 | 53 | 206 | 4.3 | 10.4 | 0.00 | 0.04 | 0.01 | 44 | 1007.9 |
| 20260501230017 | 53 | 177 | 5.2 | 10.4 | 0.00 | 0.04 | 0.01 | 45 | 1007.8 |
| 20260501225516 | 53 | 167 | 5.2 | 10.4 | 0.00 | 0.07 | 0.01 | 45 | 1007.8 |
| 20260501225016 | 53 | 179 | 4.3 | 10.4 | 0.00 | 0.07 | 0.01 | 44 | 1007.7 |
| 20260501224553 | 54 | 162 | 4.3 | 13.0 | 0.00 | 0.07 | 0.01 | 43 | 1007.7 |
| 20260501224516 | 54 | 141 | 4.3 | 13.0 | 0.00 | 0.07 | 0.01 | 44 | 1007.6 |
| 20260501224015 | 54 | 159 | 7.0 | 13.0 | 0.00 | 0.07 | 0.01 | 43 | 1007.6 |
| 20260501223454 | 54 | 169 | 5.2 | 8.7 | 0.00 | 0.07 | 0.01 | 42 | 1007.6 |
| 20260501223050 | 55 | 168 | 4.3 | 10.4 | 0.00 | 0.07 | 0.01 | 41 | 1007.6 |
| 20260501222933 | 55 | 160 | 4.3 | 11.3 | 0.00 | 0.07 | 0.01 | 42 | 1007.5 |
| 20260501222432 | 55 | 170 | 4.3 | 11.3 | 0.00 | 0.07 | 0.01 | 43 | 1007.5 |
| 20260501221932 | 55 | 158 | 6.1 | 11.3 | 0.00 | 0.07 | 0.01 | 42 | 1007.4 |
| 20260501221524 | 55 | 120 | 6.1 | 11.3 | 0.00 | 0.07 | 0.01 | 42 | 1007.4 |
| 20260501221432 | 55 | 190 | 6.1 | 13.0 | 0.00 | 0.07 | 0.01 | 42 | 1007.3 |
| 20260501220931 | 55 | 154 | 4.3 | 13.0 | 0.00 | 0.07 | 0.01 | 43 | 1007.3 |
| 20260501220410 | 55 | 214 | 5.2 | 12.2 | 0.00 | 0.07 | 0.01 | 42 | 1007.3 |
| 20260501215909 | 56 | 149 | 7.0 | 12.2 | 0.00 | 0.19 | 0.01 | 42 | 1007.2 |
| 20260501215409 | 56 | 166 | 7.0 | 12.2 | 0.00 | 0.19 | 0.01 | 41 | 1007.2 |
| 20260501214848 | 56 | 162 | 5.2 | 8.7 | 0.00 | 0.19 | 0.01 | 41 | 1007.1 |
| 20260501214347 | 56 | 177 | 3.5 | 13.9 | 0.00 | 0.19 | 0.01 | 42 | 1007.0 |
| 20260501213847 | 56 | 187 | 6.1 | 13.9 | 0.00 | 0.19 | 0.01 | 41 | 1007.1 |
| 20260501213347 | 57 | 137 | 4.3 | 12.2 | 0.00 | 0.19 | 0.01 | 43 | 1007.0 |
| 20260501212846 | 56 | 154 | 4.3 | 12.2 | 0.00 | 0.19 | 0.01 | 43 | 1007.0 |
| 20260501212346 | 56 | 70 | 6.1 | 15.6 | 0.00 | 0.19 | 0.01 | 44 | 1006.9 |
| 20260501211846 | 56 | 160 | 8.7 | 15.6 | 0.00 | 0.19 | 0.01 | 44 | 1006.9 |
| 20260501211346 | 57 | 161 | 7.0 | 14.8 | 0.00 | 0.19 | 0.01 | 44 | 1006.8 |
| 20260501210845 | 57 | 120 | 7.0 | 14.8 | 0.00 | 0.19 | 0.01 | 44 | 1006.8 |
| 20260501210345 | 58 | 155 | 5.2 | 13.9 | 0.00 | 0.19 | 0.01 | 44 | 1006.7 |
| 20260501205823 | 58 | 152 | 6.1 | 12.2 | 0.00 | 0.39 | 0.01 | 43 | 1006.6 |
| 20260501205305 | 58 | 210 | 3.5 | 12.2 | 0.00 | 0.39 | 0.01 | 42 | 1006.6 |
| 20260501204802 | 58 | 92 | 2.6 | 9.6 | 0.00 | 0.39 | 0.01 | 44 | 1006.5 |
| 20260501204302 | 58 | 166 | 5.2 | 9.6 | 0.00 | 0.39 | 0.01 | 42 | 1006.5 |
| 20260501203801 | 57 | 106 | 6.1 | 13.9 | 0.00 | 0.39 | 0.01 | 43 | 1006.5 |
| 20260501203301 | 57 | 190 | 5.2 | 13.0 | 0.00 | 0.39 | 0.01 | 44 | 1006.4 |
| 20260501202801 | 57 | 131 | 7.0 | 13.0 | 0.00 | 0.39 | 0.01 | 44 | 1006.4 |
| 20260501202300 | 57 | 179 | 7.8 | 14.8 | 0.00 | 0.39 | 0.01 | 44 | 1006.3 |
| 20260501201739 | 58 | 174 | 7.0 | 10.4 | 0.00 | 0.39 | 0.01 | 45 | 1006.3 |
| 20260501201239 | 57 | 147 | 5.2 | 11.3 | 0.00 | 0.39 | 0.01 | 45 | 1006.2 |
| 20260501200738 | 57 | 150 | 6.1 | 17.4 | 0.00 | 0.39 | 0.01 | 46 | 1006.2 |
| 20260501200238 | 56 | 193 | 7.0 | 11.3 | 0.00 | 0.39 | 0.01 | 46 | 1006.1 |
| 20260501195717 | 57 | 181 | 3.5 | 10.4 | 0.00 | 0.62 | 0.01 | 48 | 1006.0 |
| 20260501195217 | 57 | 147 | 6.1 | 10.4 | 0.00 | 0.62 | 0.01 | 48 | 1006.0 |
| 20260501194716 | 57 | 79 | 3.5 | 11.3 | 0.00 | 0.62 | 0.01 | 48 | 1005.9 |
| 20260501194216 | 57 | 201 | 2.6 | 10.4 | 0.00 | 0.62 | 0.01 | 49 | 1005.8 |
| 20260501193716 | 57 | 138 | 5.2 | 12.2 | 0.00 | 0.62 | 0.01 | 48 | 1005.8 |
| 20260501193216 | 57 | 72 | 2.6 | 12.2 | 0.00 | 0.62 | 0.01 | 49 | 1005.8 |
| 20260501192716 | 57 | 158 | 6.1 | 12.2 | 0.00 | 0.62 | 0.01 | 48 | 1005.8 |
| 20260501192215 | 57 | 152 | 5.2 | 13.0 | 0.00 | 0.62 | 0.01 | 48 | 1005.8 |
| 20260501191715 | 58 | 208 | 5.2 | 13.0 | 0.00 | 0.62 | 0.01 | 49 | 1005.7 |
| 20260501191657 | 58 | 208 | 5.2 | 13.0 | 0.00 | 0.62 | 0.01 | 49 | 1005.8 |
| 20260501191215 | 58 | 173 | 7.0 | 10.4 | 0.00 | 0.62 | 0.01 | 46 | 1005.8 |
| 20260501190714 | 58 | 187 | 5.2 | 13.0 | 0.00 | 0.62 | 0.01 | 51 | 1005.7 |
| 20260501190214 | 56 | 193 | 4.3 | 13.0 | 0.00 | 0.62 | 0.01 | 52 | 1005.7 |
| 20260501190143 | 56 | 179 | 3.5 | 12.2 | 0.00 | 0.62 | 0.01 | 52 | 1005.8 |
| 20260501185713 | 56 | 199 | 4.3 | 11.3 | 0.00 | 0.65 | 0.01 | 49 | 1005.8 |
| 20260501185213 | 56 | 139 | 4.3 | 9.6 | 0.00 | 0.65 | 0.01 | 49 | 1005.7 |
| 20260501184713 | 56 | 206 | 6.1 | 13.9 | 0.00 | 0.65 | 0.01 | 50 | 1005.7 |
| 20260501184618 | 56 | 170 | 6.1 | 13.9 | 0.00 | 0.65 | 0.01 | 48 | 1005.8 |
| 20260501184212 | 56 | 181 | 6.1 | 13.9 | 0.00 | 0.65 | 0.01 | 48 | 1005.7 |
| 20260501183712 | 57 | 193 | 8.7 | 13.9 | 0.00 | 0.65 | 0.01 | 46 | 1005.7 |
| 20260501183211 | 57 | 85 | 7.0 | 12.2 | 0.00 | 0.65 | 0.01 | 48 | 1005.7 |
| 20260501183104 | 57 | 132 | 8.7 | 12.2 | 0.00 | 0.65 | 0.01 | 47 | 1005.8 |
| 20260501182711 | 56 | 169 | 7.0 | 13.9 | 0.00 | 0.65 | 0.01 | 50 | 1005.7 |
| 20260501182211 | 56 | 185 | 7.0 | 13.9 | 0.00 | 0.65 | 0.01 | 46 | 1005.6 |
| 20260501181711 | 57 | 208 | 4.3 | 13.0 | 0.00 | 0.65 | 0.01 | 45 | 1005.7 |
| 20260501181547 | 57 | 137 | 7.0 | 13.0 | 0.00 | 0.65 | 0.01 | 45 | 1005.8 |
| 20260501181210 | 57 | 192 | 8.7 | 14.8 | 0.00 | 0.65 | 0.01 | 47 | 1005.7 |
| 20260501180710 | 57 | 164 | 7.0 | 14.8 | 0.00 | 0.65 | 0.01 | 47 | 1005.6 |
| 20260501180210 | 57 | 197 | 7.8 | 12.2 | 0.00 | 0.65 | 0.01 | 47 | 1005.7 |
| 20260501180037 | 57 | 199 | 4.3 | 13.0 | 0.00 | 0.65 | 0.01 | 50 | 1005.8 |
| 20260501175709 | 57 | 126 | 6.1 | 13.0 | 0.00 | 0.72 | 0.01 | 46 | 1005.8 |
| 20260501175209 | 57 | 95 | 6.1 | 13.0 | 0.00 | 0.72 | 0.01 | 48 | 1005.8 |
| 20260501174709 | 57 | 110 | 5.2 | 13.9 | 0.00 | 0.72 | 0.01 | 50 | 1005.8 |
| 20260501174511 | 56 | 65 | 6.1 | 15.6 | 0.00 | 0.72 | 0.01 | 49 | 1005.8 |
| 20260501174208 | 56 | 150 | 8.7 | 15.6 | 0.00 | 0.72 | 0.01 | 50 | 1005.8 |
| 20260501173708 | 56 | 141 | 7.0 | 10.4 | 0.00 | 0.72 | 0.01 | 48 | 1005.7 |
| 20260501173208 | 56 | 192 | 5.2 | 10.4 | 0.00 | 0.72 | 0.01 | 53 | 1005.8 |
| 20260501172707 | 56 | 112 | 4.3 | 8.7 | 0.00 | 0.72 | 0.01 | 51 | 1005.8 |
| 20260501172207 | 55 | 145 | 4.3 | 16.5 | 0.00 | 0.72 | 0.01 | 56 | 1005.8 |
| 20260501171707 | 56 | 152 | 9.6 | 16.5 | 0.00 | 0.72 | 0.01 | 51 | 1005.7 |
| 20260501171206 | 56 | 158 | 5.2 | 13.9 | 0.00 | 0.72 | 0.01 | 56 | 1005.6 |
| 20260501170706 | 56 | 154 | 7.0 | 13.9 | 0.00 | 0.72 | 0.01 | 55 | 1005.8 |
| 20260501170144 | 55 | 116 | 5.2 | 13.9 | 0.00 | 0.72 | 0.01 | 55 | 1005.8 |
| 20260501165644 | 55 | 135 | 7.0 | 13.9 | 0.00 | 0.77 | 0.01 | 55 | 1005.8 |
| 20260501165144 | 56 | 103 | 5.2 | 12.2 | 0.00 | 0.77 | 0.01 | 54 | 1005.8 |
| 20260501164643 | 56 | 118 | 4.3 | 12.2 | 0.00 | 0.77 | 0.01 | 54 | 1005.8 |
| 20260501164143 | 56 | 171 | 6.1 | 11.3 | 0.00 | 0.77 | 0.01 | 56 | 1005.8 |
| 20260501163642 | 55 | 105 | 4.3 | 13.9 | 0.00 | 0.77 | 0.01 | 56 | 1005.7 |
| 20260501163142 | 55 | 135 | 7.8 | 13.9 | 0.00 | 0.77 | 0.01 | 58 | 1005.7 |
| 20260501162642 | 54 | 143 | 5.2 | 11.3 | 0.00 | 0.77 | 0.01 | 58 | 1005.8 |
| 20260501162142 | 54 | 197 | 5.2 | 9.6 | 0.00 | 0.77 | 0.01 | 61 | 1005.7 |
| 20260501161642 | 54 | 175 | 5.2 | 11.3 | 0.00 | 0.77 | 0.01 | 58 | 1005.8 |
| 20260501161141 | 55 | 91 | 3.5 | 11.3 | 0.00 | 0.77 | 0.01 | 61 | 1005.7 |
| 20260501160641 | 54 | 127 | 5.2 | 13.0 | 0.00 | 0.77 | 0.01 | 63 | 1005.8 |
| 20260501160119 | 54 | 210 | 7.0 | 13.0 | 0.00 | 0.77 | 0.01 | 63 | 1005.8 |
| 20260501155619 | 53 | 107 | 5.2 | 12.2 | 0.00 | 0.82 | 0.01 | 63 | 1005.9 |
| 20260501155119 | 53 | 152 | 6.1 | 9.6 | 0.00 | 0.82 | 0.01 | 62 | 1005.9 |
| 20260501153829 | 53 | 132 | 4.3 | 10.4 | 0.00 | 0.82 | 0.01 | 62 | 1006.0 |
| 20260501153329 | 53 | 133 | 4.3 | 12.2 | 0.00 | 0.82 | 0.01 | 65 | 1006.1 |
| 20260501152829 | 53 | 161 | 7.0 | 12.2 | 0.00 | 0.82 | 0.01 | 64 | 1006.1 |
| 20260501152329 | 52 | 151 | 4.3 | 9.6 | 0.00 | 0.82 | 0.01 | 65 | 1006.2 |
| 20260501151828 | 52 | 189 | 4.3 | 11.3 | 0.00 | 0.82 | 0.01 | 64 | 1006.3 |
| 20260501151328 | 52 | 99 | 4.3 | 13.9 | 0.00 | 0.82 | 0.01 | 68 | 1006.2 |
| 20260501150725 | 52 | 119 | 4.3 | 12.2 | 0.00 | 0.82 | 0.01 | 65 | 1006.3 |
| 20260501150224 | 51 | 146 | 5.2 | 12.2 | 0.00 | 0.82 | 0.01 | 67 | 1006.3 |
| 20260501145724 | 51 | 154 | 7.0 | 13.0 | 0.00 | 0.97 | 0.01 | 67 | 1006.4 |